User: anonymous   Login
Location: La Fredeussais
(48.1780°N, 1.3980°W)
Time: 22:10:29
(UTC+00:00)
Language:

SPOT 3 Rocket - Orbit

View from above orbital plane
View from above orbital plane
View from above satellite
View from above satellite

Ground track
Ground track

The orbit data is extracted from the following two-line orbital elements,

1 22830U 93061H   21212.41734584 -.00000014  00000-0  11625-4 0  9993
2 22830  98.7106 270.1125 0010640 196.9163 163.1666 14.31486870453331
Epoch (UTC): 31 July 2021 10:00:58
Eccentricity: 0.0010640
inclination: 98.7106°
perigee height: 779 km
apogee height: 794 km
right ascension of ascending node: 270.1125°
argument of perigee: 196.9163°
revolutions per day: 14.31486870
mean anomaly at epoch: 163.1666°
orbit number at epoch: 45333

The dashed part of the orbit path shows where the satellite is in the earth's shadow,  

DLR